Stations météo

réclame
Mon MeteoGroup
Nottingham/Watnall, Grande-Bretagne (3354): Température de l'air & dewpoint: 13.07.2018 18:00:00 - 19.07.2018 18:00:00 (BST)Nottingham/Watnall, Grande-Bretagne (3354): Température de l'air -20cm & Température de l'air -100cm: 13.07.2018 18:00:00 - 19.07.2018 18:00:00 (BST)Nottingham/Watnall, Grande-Bretagne (3354): Vitesse du vent: 13.07.2018 18:00:00 - 19.07.2018 18:00:00 (BST)Nottingham/Watnall, Grande-Bretagne (3354): Direction du vent: 13.07.2018 18:00:00 - 19.07.2018 18:00:00 (BST)Nottingham/Watnall, Grande-Bretagne (3354): reduced air pressure: 13.07.2018 18:00:00 - 19.07.2018 18:00:00 (BST)Nottingham/Watnall, Grande-Bretagne (3354): visibility: 13.07.2018 18:00:00 - 19.07.2018 18:00:00 (BST)Nottingham/Watnall, Grande-Bretagne (3354): Ensoleillement: 13.07.2018 18:00:00 - 19.07.2018 18:00:00 (BST)Nottingham/Watnall, Grande-Bretagne (3354): Quantités de précipitations: 13.07.2018 18:00:00 - 19.07.2018 18:00:00 (BST)
Date & Time tt [°C] td [°C] tt -20cm [°C] tt -100cm [°C] ff [km/h] ff [knt] dd ppp [hPa] vv [km] sd [min] rr [mm]
19.07.2018 18:00:00 25,3 9,5 - - 11 6 WSW 1016,6 24 36 0,0
19.07.2018 17:00:00 25,0 9,9 - - 5 3 WSW 1017,1 30 36 0,0
19.07.2018 16:00:00 24,2 9,7 - - 8 4 W 1017,5 30 6 0,0
19.07.2018 15:00:00 24,7 10,4 - - 8 4 SSW 1017,9 35 36 0,0
19.07.2018 14:00:00 23,9 10,1 - - 15 8 W 1018,1 29 30 0,0
19.07.2018 13:00:00 23,2 10,1 - - 9 5 W 1018,5 18 36 0,0
19.07.2018 12:00:00 22,7 10,7 - - 9 5 W 1018,8 30 30 0,0
19.07.2018 11:00:00 22,4 10,8 - - 8 4 SSW 1019,0 30 60 0,0
19.07.2018 10:00:00 21,3 12,5 19,5 18,0 4 2 SSW 1019,0 13 60 0,0
19.07.2018 09:00:00 19,7 13,2 - - 2 1 NNE 1019,2 19 42 0,0
19.07.2018 08:00:00 17,2 12,1 - - 2 1 E 1019,2 27 0 0,0
19.07.2018 07:00:00 16,6 11,5 - - 8 4 NW 1019,2 27 0 0,0
19.07.2018 06:00:00 15,9 11,6 - - 8 4 WNW 1019,1 19 0 0,0
19.07.2018 05:00:00 16,1 11,0 - - 8 4 W 1019,0 19 0 0,0
19.07.2018 04:00:00 16,3 10,7 - - 8 4 WSW 1019,1 21 0 0,0
19.07.2018 03:00:00 14,8 10,6 - - 5 3 SW 1019,3 26 0 0,0
19.07.2018 02:00:00 16,0 11,1 - - 0 0 N 1019,3 40 0 0,0
19.07.2018 01:00:00 17,4 11,6 - - 4 2 NE 1019,0 21 - 0,0
19.07.2018 00:00:00 17,6 10,8 - - 2 1 S 1019,0 26 0 0,0
18.07.2018 23:00:00 18,4 10,9 - - 4 2 ESE 1018,7 40 0 0,0
18.07.2018 22:00:00 19,7 10,6 - - 2 1 W 1018,6 35 0 0,0
18.07.2018 21:00:00 20,6 10,4 - - 2 1 W 1018,5 40 0 0,0
18.07.2018 20:00:00 21,3 10,2 - - 8 4 W 1018,3 45 0 0,0
18.07.2018 19:00:00 21,7 9,6 - - 9 5 WSW 1018,1 35 0 0,0
18.07.2018 18:00:00 21,9 9,9 - - 8 4 SW 1018,0 29 0 0,0
18.07.2018 17:00:00 22,2 9,7 - - 9 5 SW 1017,9 30 0 0,0
18.07.2018 16:00:00 22,8 9,8 - - 4 2 WSW 1017,8 45 42 0,0
18.07.2018 15:00:00 22,2 11,4 - - 9 5 WSW 1018,1 40 6 0,0
18.07.2018 14:00:00 21,5 10,9 - - 9 5 SSW 1018,1 30 0 0,0
18.07.2018 13:00:00 20,0 11,3 - - 11 6 SW 1018,4 25 0 0,0
18.07.2018 12:00:00 21,0 11,2 - - 11 6 SSW 1018,3 27 0 0,0
18.07.2018 11:00:00 20,0 9,9 - - 9 5 SSW 1018,3 30 0 0,0
18.07.2018 10:00:00 19,3 9,6 19,7 18,2 8 4 SSE 1018,2 30 0 0,0
18.07.2018 09:00:00 18,6 8,6 - - 8 4 SE 1018,4 30 30 0,0
18.07.2018 08:00:00 17,4 9,2 - - 9 5 ESE 1018,0 30 12 0,0
18.07.2018 07:00:00 15,8 9,4 - - 4 2 ESE 1017,9 30 0 0,0
18.07.2018 06:00:00 14,6 8,8 - - 2 1 S 1017,6 13 0 0,0
18.07.2018 05:00:00 14,2 8,9 - - 2 1 SE 1017,4 50 0 0,0
18.07.2018 04:00:00 14,7 8,1 - - 4 2 WSW 1017,4 45 0 0,0
18.07.2018 03:00:00 14,5 8,3 - - 0 0 N 1017,3 35 0 0,0
18.07.2018 02:00:00 15,0 7,5 - - 4 2 NNE 1017,3 40 0 0,0
18.07.2018 01:00:00 15,6 7,7 - - 2 1 NNW 1017,2 35 - 0,0
18.07.2018 00:00:00 15,9 7,9 - - 4 2 NNW 1017,2 40 0 0,0
17.07.2018 23:00:00 16,2 9,3 - - 5 3 NNW 1016,9 40 0 0,0
17.07.2018 22:00:00 17,4 9,6 - - 8 4 NNW 1016,4 35 0 0,0
17.07.2018 21:00:00 19,2 6,7 - - 9 5 W 1015,7 45 42 0,0
17.07.2018 20:00:00 20,9 6,5 - - 15 8 W 1015,2 35 54 0,0
17.07.2018 19:00:00 22,1 7,3 - - 13 7 W 1014,5 45 18 0,0
17.07.2018 18:00:00 21,4 8,7 - - 11 6 W 1014,9 35 18 0,0
17.07.2018 17:00:00 20,3 9,1 - - 9 5 SW 1014,9 35 24 0,0
17.07.2018 16:00:00 20,7 10,3 - - 5 3 S 1015,2 23 18 0,0
17.07.2018 15:00:00 18,8 8,9 - - 9 5 WNW 1015,5 40 0 0,0
17.07.2018 14:00:00 19,1 8,7 - - 11 6 WSW 1015,4 35 0 0,0
17.07.2018 13:00:00 18,8 8,2 - - 13 7 W 1015,4 50 0 0,0
17.07.2018 12:00:00 19,2 8,1 - - 16 9 W 1015,1 28 6 0,0
17.07.2018 11:00:00 19,3 8,3 - - 16 9 W 1014,8 45 42 0,0
17.07.2018 10:00:00 18,0 10,8 20,0 18,0 13 7 W 1014,6 35 60 0,0
17.07.2018 09:00:00 16,1 11,6 - - 11 6 WSW 1014,7 14 60 0,0
17.07.2018 08:00:00 14,6 11,1 - - 11 6 WSW 1014,7 20 60 0,0
17.07.2018 07:00:00 13,5 10,6 - - 11 6 W 1014,4 26 60 0,0
17.07.2018 06:00:00 12,8 10,0 - - 9 5 W 1013,9 28 18 0,0
17.07.2018 05:00:00 13,2 10,0 - - 11 6 W 1013,6 35 0 0,0
17.07.2018 04:00:00 14,1 10,7 - - 13 7 WNW 1013,5 35 0 0,0
17.07.2018 03:00:00 15,3 12,0 - - 11 6 WNW 1013,2 35 0 0,0
17.07.2018 02:00:00 15,6 12,4 - - 13 7 WNW 1013,3 50 0 0,0
17.07.2018 01:00:00 15,9 13,1 - - 13 7 W 1013,3 45 - 0,0
17.07.2018 00:00:00 16,6 14,1 - - 13 7 W 1013,1 23 0 0,0
16.07.2018 23:00:00 18,0 14,1 - - 9 5 W 1012,6 35 0 0,0
16.07.2018 22:00:00 18,9 14,3 - - 15 8 W 1012,3 18 0 0,0
16.07.2018 21:00:00 20,8 13,6 - - 18 10 W 1012,0 40 0 0,0
16.07.2018 20:00:00 22,3 12,2 - - 18 10 WSW 1011,5 30 12 0,0
16.07.2018 19:00:00 25,3 10,0 - - 16 9 SW 1010,5 40 42 0,0
16.07.2018 18:00:00 25,2 10,2 - - 8 4 SW 1010,8 29 18 0,0
16.07.2018 17:00:00 25,8 10,1 - - 11 6 SW 1011,3 35 18 0,0
16.07.2018 16:00:00 25,5 11,8 - - 11 6 SW 1011,7 23 12 0,0
16.07.2018 15:00:00 25,2 12,6 - - 11 6 SSW 1012,3 25 6 0,0
16.07.2018 14:00:00 24,3 12,2 - - 9 5 WSW 1012,6 29 24 0,0
16.07.2018 13:00:00 23,5 12,4 - - 11 6 SW 1013,1 30 30 0,0
16.07.2018 12:00:00 23,2 13,0 - - 9 5 SSW 1013,4 50 24 0,0
16.07.2018 11:00:00 21,5 13,7 - - 8 4 WSW 1013,5 45 42 0,0
16.07.2018 10:00:00 20,1 13,7 20,0 18,0 13 7 W 1013,8 30 6 0,0
16.07.2018 09:00:00 19,3 13,3 - - 11 6 WSW 1013,8 35 0 0,0
16.07.2018 08:00:00 18,5 13,6 - - 8 4 WSW 1013,7 25 42 0,0
16.07.2018 07:00:00 17,8 13,7 - - 5 3 WSW 1013,7 19 60 0,0
16.07.2018 06:00:00 15,7 13,1 - - 5 3 WSW 1013,9 17 6 0,0
16.07.2018 05:00:00 14,2 12,0 - - 4 2 SW 1014,0 21 0 0,0
16.07.2018 04:00:00 15,7 12,5 - - 5 3 W 1014,3 18 0 0,0
16.07.2018 03:00:00 15,5 12,1 - - 4 2 WSW 1014,4 28 0 0,0
16.07.2018 02:00:00 16,3 11,9 - - 5 3 W 1014,7 30 0 0,0
16.07.2018 01:00:00 18,5 12,0 - - 8 4 WNW 1014,5 40 - 0,0
16.07.2018 00:00:00 19,7 11,6 - - 9 5 WNW 1014,6 40 0 0,0
15.07.2018 23:00:00 20,9 10,7 - - 8 4 WNW 1014,2 25 0 0,0
15.07.2018 22:00:00 21,3 9,7 - - 4 2 W 1013,9 45 0 0,0
15.07.2018 21:00:00 23,8 9,5 - - 8 4 W 1013,6 40 42 0,0
15.07.2018 20:00:00 25,7 9,4 - - 9 5 W 1013,3 40 48 0,0
15.07.2018 19:00:00 25,8 8,5 - - 11 6 SW 1013,2 40 48 0,0
15.07.2018 18:00:00 26,9 9,2 - - 13 7 SW 1013,6 50 54 0,0
15.07.2018 17:00:00 26,7 9,6 - - 15 8 W 1013,9 17 60 0,0
15.07.2018 16:00:00 26,1 10,1 - - 8 4 SW 1014,3 30 60 0,0
15.07.2018 15:00:00 25,7 10,0 - - 11 6 WSW 1014,7 24 60 0,0
15.07.2018 14:00:00 24,7 11,2 - - 11 6 SW 1015,1 30 60 0,0
15.07.2018 13:00:00 24,6 11,6 - - 9 5 SW 1015,7 45 60 0,0
15.07.2018 12:00:00 23,5 12,0 - - 13 7 SW 1016,1 30 60 0,0
15.07.2018 11:00:00 21,6 12,4 - - 9 5 SW 1016,4 35 60 0,0
15.07.2018 10:00:00 20,7 13,2 19,7 18,0 13 7 WSW 1016,7 29 60 0,0
15.07.2018 09:00:00 18,8 13,2 - - 15 8 WSW 1017,0 35 60 0,0
15.07.2018 08:00:00 17,1 13,2 - - 11 6 WSW 1017,1 20 60 0,0
15.07.2018 07:00:00 15,1 12,4 - - 11 6 WSW 1017,1 27 60 0,0
15.07.2018 06:00:00 14,2 12,2 - - 8 4 WSW 1017,0 17 6 0,0
15.07.2018 05:00:00 14,4 12,7 - - 8 4 WSW 1017,0 16 0 0,0
15.07.2018 04:00:00 14,1 12,0 - - 4 2 SW 1017,3 15 0 0,0
15.07.2018 03:00:00 15,8 12,0 - - 5 3 WSW 1017,3 19 0 0,0
15.07.2018 02:00:00 17,4 12,3 - - 9 5 W 1017,2 23 0 0,0
15.07.2018 01:00:00 18,2 12,0 - - 11 6 W 1017,3 35 - 0,0
15.07.2018 00:00:00 19,4 11,8 - - 8 4 WSW 1017,2 30 0 0,0
14.07.2018 23:00:00 18,3 11,3 - - 4 2 SW 1017,2 35 0 0,0
14.07.2018 22:00:00 21,1 11,3 - - 4 2 WSW 1017,2 45 0 0,0
14.07.2018 21:00:00 23,6 11,5 - - 8 4 WSW 1016,8 45 30 0,0
14.07.2018 20:00:00 25,4 11,3 - - 9 5 WSW 1016,7 35 42 0,0
14.07.2018 19:00:00 26,3 11,2 - - 9 5 SW 1016,8 23 60 0,0
14.07.2018 18:00:00 26,4 10,7 - - 13 7 SW 1017,1 35 54 0,0
14.07.2018 17:00:00 25,7 11,0 - - 15 8 WSW 1017,5 30 48 0,0
14.07.2018 16:00:00 25,5 13,2 - - 11 6 W 1018,0 20 18 0,0
14.07.2018 15:00:00 24,2 13,0 - - 11 6 W 1018,6 18 24 0,0
14.07.2018 14:00:00 24,8 14,0 - - 9 5 WNW 1019,1 22 36 0,0
14.07.2018 13:00:00 24,2 14,1 - - 11 6 WSW 1019,5 22 36 0,0
14.07.2018 12:00:00 22,5 13,4 - - 8 4 WSW 1019,9 26 48 0,0
14.07.2018 11:00:00 21,5 14,0 - - 8 4 SW 1020,3 10 60 0,0
14.07.2018 10:00:00 19,8 13,7 19,7 18,0 5 3 W 1020,7 15 60 0,0
14.07.2018 09:00:00 18,7 14,4 - - 4 2 NNW 1021,0 11 60 0,0
14.07.2018 08:00:00 16,3 14,4 - - 4 2 W 1021,1 11 60 0,0
14.07.2018 07:00:00 14,1 13,7 - - 0 0 N 1021,0 17 30 0,0
14.07.2018 06:00:00 12,8 12,3 - - 2 1 WNW 1021,1 16 0 0,0
14.07.2018 05:00:00 12,9 12,2 - - 4 2 NW 1021,0 18 0 0,0
14.07.2018 04:00:00 13,1 12,5 - - 4 2 WSW 1021,2 18 0 0,0
14.07.2018 03:00:00 13,0 11,9 - - 4 2 E 1021,4 19 0 0,0
14.07.2018 02:00:00 13,7 12,0 - - 8 4 E 1021,6 40 0 0,0
14.07.2018 01:00:00 14,7 12,4 - - 5 3 ESE 1021,8 45 - 0,0
14.07.2018 00:00:00 15,9 12,7 - - 13 7 ESE 1021,9 40 0 0,0
13.07.2018 23:00:00 16,4 13,5 - - 11 6 E 1021,7 40 0 0,0
13.07.2018 22:00:00 17,2 15,4 - - 8 4 NNE 1021,8 16 0 3,0
13.07.2018 21:00:00 18,6 14,0 - - 13 7 WSW 1021,4 2,3 0 3,2
13.07.2018 20:00:00 21,7 12,2 - - 11 6 E 1020,5 35 12 0,0
13.07.2018 19:00:00 23,1 12,4 - - 11 6 ESE 1020,3 23 60 0,0
13.07.2018 18:00:00 23,3 12,3 - - 13 7 E 1020,8 35 60 0,0

tt = Température de l'air
td = dewpoint
tt -20cm = Température de l'air -20cm
tt -100cm = Température de l'air -100cm
ff = Vitesse du vent
dd = Direction du vent
ppp = reduced air pressure
vv = visibility
sd = Ensoleillement
rr = Quantités de précipitations

stations d'obs. à proximité